ECMWFFLT1_prec_pwat_342.txt.gz
Precipitable_Water
0.56 0.57 0.57 0.57 0.57 0.56 0.56 0.54 0.52 0.51 0.49 0.46 0.44 0.43 0.41 0.39 0.36 0.32 0.29 0.27 0.28 0.31 0.35 0.41 0.45 0.45 0.44 0.44 0.43 0.43 0.43 0.41 0.40 0.38 0.36 0.35 0.33 0.31 0.30 0.28 0.27 0.26 0.26 0.29 0.30 0.28 0.27 0.27 0.26 0.24 0.24 0.22 0.22 0.22 0.22 0.23 0.22 0.23 0.22 0.23 0.22 0.22 0.22
0.55 0.56 0.56 0.56 0.55 0.54 0.53 0.52 0.51 0.49 0.47 0.43 0.41 0.39 0.39 0.37 0.34 0.32 0.30 0.29 0.28 0.32 0.37 0.43 0.45 0.47 0.48 0.46 0.44 0.43 0.42 0.40 0.38 0.37 0.35 0.34 0.32 0.30 0.29 0.28 0.27 0.26 0.25 0.25 0.27 0.26 0.27 0.26 0.25 0.23 0.24 0.22 0.22 0.21 0.22 0.21 0.22 0.22 0.23 0.22 0.22 0.21 0.21
0.54 0.55 0.55 0.55 0.54 0.53 0.51 0.50 0.49 0.47 0.44 0.41 0.38 0.36 0.34 0.33 0.33 0.31 0.30 0.30 0.31 0.35 0.41 0.46 0.48 0.48 0.46 0.44 0.43 0.41 0.39 0.38 0.36 0.35 0.33 0.32 0.30 0.29 0.28 0.27 0.26 0.25 0.24 0.24 0.25 0.27 0.25 0.24 0.24 0.23 0.23 0.23 0.22 0.22 0.21 0.21 0.21 0.21 0.21 0.21 0.21 0.20 0.20
0.53 0.54 0.54 0.54 0.53 0.52 0.51 0.49 0.47 0.45 0.42 0.39 0.36 0.34 0.32 0.31 0.31 0.32 0.33 0.34 0.36 0.38 0.41 0.43 0.44 0.43 0.43 0.42 0.40 0.39 0.37 0.36 0.34 0.33 0.32 0.30 0.29 0.27 0.27 0.26 0.26 0.26 0.25 0.24 0.23 0.25 0.24 0.24 0.23 0.23 0.23 0.22 0.22 0.21 0.21 0.21 0.21 0.21 0.20 0.20 0.20 0.19 0.19
0.53 0.53 0.52 0.52 0.52 0.51 0.50 0.48 0.46 0.43 0.40 0.37 0.35 0.33 0.32 0.31 0.31 0.32 0.34 0.35 0.38 0.40 0.42 0.43 0.44 0.45 0.44 0.42 0.40 0.37 0.36 0.34 0.33 0.32 0.31 0.29 0.28 0.27 0.27 0.27 0.26 0.26 0.25 0.24 0.23 0.23 0.24 0.23 0.22 0.22 0.22 0.22 0.20 0.20 0.20 0.20 0.19 0.19 0.19 0.19 0.18 0.18 0.18
0.51 0.51 0.51 0.50 0.50 0.50 0.49 0.47 0.45 0.42 0.38 0.36 0.34 0.32 0.32 0.33 0.33 0.34 0.36 0.39 0.42 0.44 0.45 0.45 0.44 0.43 0.42 0.40 0.38 0.36 0.35 0.33 0.31 0.30 0.29 0.28 0.27 0.26 0.26 0.25 0.25 0.25 0.24 0.23 0.22 0.22 0.22 0.22 0.21 0.21 0.21 0.21 0.20 0.19 0.18 0.18 0.19 0.18 0.18 0.18 0.17 0.16 0.17
0.49 0.49 0.48 0.48 0.48 0.48 0.47 0.45 0.43 0.40 0.38 0.36 0.34 0.33 0.33 0.33 0.35 0.37 0.38 0.40 0.42 0.42 0.43 0.43 0.42 0.41 0.40 0.38 0.36 0.34 0.32 0.31 0.30 0.29 0.28 0.27 0.26 0.26 0.25 0.24 0.24 0.24 0.23 0.23 0.22 0.21 0.21 0.21 0.21 0.21 0.19 0.20 0.20 0.19 0.18 0.17 0.17 0.16 0.17 0.17 0.16 0.15 0.15
0.47 0.47 0.47 0.46 0.46 0.45 0.44 0.43 0.41 0.39 0.37 0.36 0.35 0.34 0.35 0.35 0.36 0.38 0.39 0.40 0.41 0.42 0.41 0.41 0.40 0.39 0.37 0.36 0.35 0.33 0.32 0.31 0.30 0.29 0.28 0.27 0.26 0.25 0.25 0.24 0.24 0.23 0.23 0.22 0.22 0.21 0.20 0.20 0.20 0.19 0.19 0.19 0.18 0.17 0.16 0.17 0.16 0.15 0.15 0.15 0.16 0.15 0.15
0.46 0.46 0.45 0.44 0.43 0.43 0.43 0.41 0.39 0.38 0.37 0.36 0.36 0.36 0.36 0.37 0.38 0.39 0.40 0.41 0.41 0.40 0.40 0.38 0.38 0.37 0.36 0.35 0.34 0.32 0.31 0.31 0.30 0.28 0.27 0.27 0.26 0.25 0.25 0.24 0.23 0.23 0.22 0.22 0.21 0.20 0.20 0.19 0.18 0.17 0.17 0.16 0.15 0.15 0.15 0.16 0.16 0.15 0.15 0.15 0.15 0.14 0.14
0.45 0.44 0.44 0.43 0.43 0.42 0.41 0.40 0.39 0.39 0.38 0.38 0.38 0.39 0.39 0.40 0.41 0.41 0.40 0.39 0.39 0.38 0.38 0.37 0.37 0.36 0.35 0.34 0.33 0.32 0.31 0.31 0.30 0.29 0.28 0.27 0.26 0.25 0.24 0.24 0.23 0.22 0.21 0.21 0.19 0.19 0.18 0.17 0.16 0.16 0.16 0.15 0.15 0.16 0.16 0.15 0.15 0.14 0.14 0.14 0.13 0.13 0.13
0.43 0.43 0.43 0.42 0.42 0.42 0.42 0.41 0.41 0.40 0.40 0.40 0.40 0.41 0.41 0.40 0.40 0.39 0.39 0.39 0.38 0.38 0.37 0.37 0.36 0.35 0.34 0.33 0.32 0.32 0.31 0.30 0.29 0.29 0.28 0.27 0.26 0.26 0.24 0.23 0.22 0.21 0.20 0.19 0.18 0.17 0.16 0.16 0.15 0.15 0.15 0.15 0.15 0.15 0.15 0.15 0.15 0.14 0.14 0.13 0.11 0.10 0.11
0.42 0.42 0.43 0.43 0.43 0.42 0.42 0.41 0.41 0.41 0.42 0.42 0.42 0.41 0.41 0.40 0.40 0.40 0.39 0.38 0.37 0.36 0.36 0.35 0.34 0.33 0.33 0.32 0.31 0.31 0.30 0.29 0.28 0.28 0.27 0.27 0.26 0.25 0.24 0.23 0.21 0.20 0.19 0.18 0.16 0.16 0.15 0.15 0.15 0.15 0.15 0.15 0.15 0.15 0.15 0.14 0.14 0.13 0.12 0.11 0.10 0.10 0.09
0.42 0.42 0.43 0.43 0.42 0.42 0.42 0.41 0.42 0.42 0.42 0.42 0.42 0.41 0.41 0.40 0.40 0.38 0.37 0.36 0.36 0.35 0.34 0.33 0.33 0.32 0.32 0.31 0.31 0.30 0.29 0.28 0.27 0.27 0.26 0.25 0.24 0.23 0.22 0.21 0.21 0.20 0.19 0.18 0.17 0.16 0.15 0.15 0.15 0.15 0.14 0.15 0.15 0.15 0.14 0.13 0.12 0.12 0.11 0.10 0.09 0.09 0.09
0.41 0.42 0.42 0.42 0.42 0.42 0.42 0.42 0.43 0.43 0.43 0.42 0.42 0.41 0.40 0.39 0.38 0.36 0.36 0.35 0.34 0.34 0.33 0.33 0.32 0.31 0.31 0.31 0.30 0.30 0.29 0.27 0.26 0.25 0.24 0.23 0.21 0.20 0.20 0.19 0.19 0.18 0.18 0.17 0.16 0.16 0.15 0.15 0.15 0.15 0.15 0.15 0.15 0.14 0.12 0.12 0.11 0.11 0.10 0.09 0.09 0.09 0.09
0.40 0.40 0.41 0.41 0.42 0.42 0.42 0.42 0.43 0.43 0.43 0.42 0.41 0.40 0.38 0.37 0.36 0.35 0.34 0.34 0.34 0.33 0.33 0.32 0.32 0.31 0.30 0.29 0.28 0.28 0.26 0.25 0.24 0.22 0.21 0.20 0.19 0.18 0.18 0.17 0.17 0.16 0.16 0.16 0.16 0.15 0.15 0.15 0.15 0.15 0.15 0.14 0.14 0.13 0.12 0.12 0.11 0.11 0.10 0.10 0.10 0.09 0.09
0.39 0.40 0.40 0.40 0.41 0.41 0.41 0.42 0.42 0.42 0.42 0.41 0.40 0.39 0.37 0.36 0.35 0.34 0.34 0.34 0.33 0.33 0.33 0.32 0.31 0.29 0.28 0.27 0.26 0.25 0.24 0.23 0.22 0.20 0.19 0.18 0.17 0.17 0.17 0.16 0.16 0.16 0.16 0.16 0.16 0.15 0.15 0.15 0.15 0.14 0.14 0.13 0.13 0.13 0.13 0.12 0.12 0.11 0.10 0.09 0.08 0.07 0.07
0.38 0.39 0.39 0.39 0.40 0.40 0.40 0.41 0.41 0.41 0.41 0.40 0.40 0.38 0.36 0.35 0.34 0.34 0.33 0.33 0.32 0.32 0.31 0.30 0.28 0.27 0.25 0.24 0.23 0.22 0.22 0.21 0.20 0.18 0.17 0.17 0.16 0.16 0.15 0.15 0.15 0.16 0.16 0.16 0.16 0.16 0.16 0.15 0.15 0.15 0.15 0.14 0.14 0.13 0.13 0.11 0.10 0.08 0.08 0.07 0.06 0.06 0.06
0.37 0.38 0.38 0.38 0.38 0.39 0.39 0.39 0.39 0.39 0.39 0.39 0.39 0.37 0.35 0.34 0.33 0.33 0.32 0.31 0.31 0.30 0.29 0.27 0.26 0.25 0.24 0.23 0.22 0.21 0.20 0.19 0.19 0.17 0.17 0.16 0.15 0.15 0.14 0.14 0.14 0.15 0.15 0.15 0.14 0.14 0.14 0.13 0.13 0.12 0.11 0.10 0.10 0.10 0.09 0.09 0.07 0.07 0.07 0.06 0.06 0.05 0.05
0.37 0.37 0.37 0.37 0.37 0.37 0.37 0.37 0.37 0.37 0.37 0.36 0.37 0.36 0.34 0.33 0.32 0.31 0.30 0.29 0.28 0.28 0.27 0.26 0.25 0.24 0.23 0.21 0.20 0.20 0.19 0.18 0.18 0.17 0.16 0.15 0.15 0.14 0.14 0.14 0.14 0.14 0.13 0.13 0.13 0.13 0.12 0.12 0.11 0.11 0.10 0.09 0.09 0.09 0.09 0.08 0.08 0.08 0.07 0.06 0.06 0.06 0.06
0.36 0.36 0.36 0.36 0.36 0.36 0.35 0.35 0.35 0.35 0.35 0.34 0.35 0.34 0.33 0.31 0.30 0.28 0.28 0.27 0.26 0.25 0.24 0.24 0.23 0.23 0.22 0.21 0.20 0.19 0.18 0.18 0.17 0.16 0.16 0.15 0.14 0.13 0.13 0.13 0.14 0.14 0.13 0.13 0.13 0.12 0.12 0.11 0.10 0.10 0.09 0.09 0.08 0.08 0.08 0.08 0.08 0.07 0.07 0.06 0.06 0.06 0.06
0.35 0.35 0.35 0.35 0.35 0.35 0.34 0.34 0.33 0.33 0.33 0.33 0.33 0.33 0.31 0.29 0.28 0.26 0.25 0.24 0.24 0.23 0.23 0.22 0.21 0.21 0.20 0.19 0.19 0.18 0.17 0.17 0.16 0.15 0.15 0.14 0.13 0.13 0.13 0.14 0.14 0.13 0.14 0.13 0.12 0.11 0.11 0.10 0.09 0.09 0.09 0.08 0.08 0.08 0.08 0.08 0.07 0.07 0.07 0.07 0.06 0.06 0.06
0.34 0.34 0.34 0.34 0.33 0.33 0.33 0.33 0.32 0.32 0.31 0.31 0.30 0.30 0.29 0.27 0.25 0.24 0.23 0.23 0.22 0.22 0.21 0.20 0.20 0.19 0.19 0.18 0.18 0.17 0.16 0.15 0.15 0.15 0.15 0.14 0.14 0.14 0.14 0.14 0.14 0.14 0.13 0.12 0.11 0.10 0.10 0.09 0.08 0.08 0.07 0.07 0.07 0.07 0.07 0.07 0.07 0.07 0.07 0.07 0.07 0.07 0.06
0.33 0.33 0.32 0.32 0.32 0.32 0.31 0.31 0.31 0.30 0.29 0.29 0.28 0.27 0.26 0.25 0.24 0.23 0.23 0.22 0.21 0.20 0.20 0.20 0.19 0.18 0.18 0.17 0.16 0.16 0.15 0.15 0.15 0.14 0.14 0.15 0.15 0.15 0.14 0.14 0.14 0.13 0.12 0.11 0.10 0.09 0.09 0.08 0.08 0.07 0.07 0.07 0.06 0.07 0.07 0.07 0.07 0.07 0.07 0.07 0.08 0.08 0.08
0.32 0.31 0.31 0.31 0.31 0.30 0.30 0.30 0.29 0.29 0.28 0.27 0.25 0.24 0.24 0.24 0.24 0.23 0.22 0.21 0.20 0.20 0.19 0.19 0.18 0.18 0.17 0.16 0.16 0.15 0.14 0.14 0.14 0.14 0.14 0.14 0.14 0.14 0.14 0.13 0.12 0.11 0.11 0.10 0.09 0.08 0.08 0.07 0.07 0.07 0.06 0.06 0.06 0.07 0.07 0.07 0.07 0.07 0.07 0.07 0.07 0.08 0.08
0.32 0.31 0.31 0.30 0.29 0.29 0.29 0.29 0.28 0.27 0.26 0.25 0.23 0.23 0.23 0.23 0.22 0.22 0.22 0.21 0.21 0.20 0.19 0.19 0.18 0.17 0.17 0.16 0.15 0.15 0.14 0.14 0.14 0.13 0.13 0.13 0.13 0.13 0.12 0.12 0.11 0.10 0.10 0.09 0.08 0.08 0.07 0.07 0.07 0.06 0.06 0.07 0.07 0.07 0.07 0.07 0.07 0.07 0.08 0.08 0.08 0.08 0.08
0.31 0.30 0.30 0.29 0.29 0.29 0.28 0.28 0.27 0.25 0.24 0.23 0.23 0.23 0.22 0.21 0.21 0.21 0.21 0.21 0.21 0.20 0.19 0.19 0.18 0.17 0.17 0.16 0.15 0.15 0.14 0.14 0.13 0.13 0.13 0.13 0.13 0.12 0.11 0.11 0.10 0.10 0.09 0.08 0.08 0.07 0.07 0.06 0.06 0.06 0.07 0.07 0.07 0.07 0.07 0.07 0.07 0.07 0.07 0.07 0.07 0.07 0.07
0.31 0.30 0.30 0.29 0.29 0.28 0.27 0.26 0.25 0.24 0.23 0.23 0.23 0.22 0.21 0.21 0.21 0.21 0.21 0.21 0.20 0.20 0.19 0.19 0.18 0.17 0.17 0.16 0.15 0.15 0.14 0.14 0.14 0.13 0.13 0.13 0.12 0.12 0.11 0.11 0.10 0.09 0.08 0.08 0.07 0.07 0.07 0.06 0.07 0.07 0.07 0.07 0.07 0.07 0.07 0.07 0.07 0.07 0.07 0.07 0.07 0.06 0.06
0.31 0.30 0.30 0.29 0.28 0.27 0.26 0.25 0.25 0.24 0.24 0.23 0.22 0.21 0.21 0.21 0.21 0.20 0.20 0.20 0.20 0.19 0.19 0.18 0.18 0.17 0.16 0.16 0.15 0.14 0.14 0.14 0.13 0.13 0.13 0.12 0.12 0.11 0.11 0.10 0.10 0.09 0.09 0.08 0.07 0.07 0.07 0.06 0.06 0.06 0.06 0.07 0.07 0.07 0.07 0.07 0.07 0.07 0.07 0.07 0.06 0.06 0.05
0.31 0.31 0.30 0.29 0.28 0.27 0.26 0.26 0.25 0.24 0.23 0.22 0.22 0.22 0.21 0.21 0.20 0.20 0.20 0.20 0.19 0.19 0.19 0.18 0.17 0.16 0.15 0.15 0.14 0.14 0.13 0.13 0.13 0.12 0.12 0.11 0.11 0.10 0.10 0.09 0.09 0.08 0.08 0.07 0.07 0.06 0.06 0.06 0.06 0.06 0.07 0.07 0.07 0.07 0.07 0.07 0.07 0.07 0.06 0.06 0.06 0.06 0.05
0.31 0.30 0.30 0.28 0.28 0.28 0.27 0.26 0.24 0.24 0.23 0.23 0.23 0.22 0.21 0.21 0.20 0.20 0.20 0.19 0.19 0.19 0.18 0.17 0.16 0.15 0.15 0.14 0.14 0.13 0.13 0.12 0.12 0.11 0.11 0.10 0.10 0.10 0.09 0.09 0.08 0.08 0.07 0.07 0.07 0.06 0.06 0.06 0.06 0.06 0.07 0.07 0.06 0.06 0.07 0.07 0.07 0.06 0.06 0.06 0.06 0.05 0.05
0.30 0.30 0.30 0.29 0.28 0.27 0.27 0.26 0.25 0.24 0.23 0.23 0.22 0.22 0.21 0.21 0.20 0.20 0.20 0.19 0.19 0.18 0.17 0.16 0.15 0.15 0.14 0.14 0.13 0.13 0.12 0.12 0.11 0.11 0.10 0.10 0.09 0.09 0.09 0.08 0.08 0.08 0.07 0.07 0.07 0.07 0.07 0.07 0.07 0.06 0.07 0.06 0.06 0.06 0.06 0.07 0.07 0.06 0.06 0.06 0.06 0.06 0.05
0.30 0.30 0.29 0.28 0.27 0.26 0.26 0.25 0.24 0.24 0.23 0.22 0.22 0.21 0.21 0.20 0.20 0.20 0.20 0.19 0.18 0.17 0.16 0.16 0.15 0.14 0.14 0.13 0.13 0.12 0.12 0.11 0.11 0.10 0.10 0.09 0.09 0.09 0.08 0.08 0.08 0.08 0.07 0.07 0.07 0.07 0.07 0.07 0.07 0.07 0.06 0.06 0.06 0.06 0.06 0.06 0.06 0.06 0.06 0.06 0.06 0.06 0.06
0.29 0.28 0.27 0.27 0.26 0.26 0.25 0.24 0.24 0.23 0.22 0.21 0.21 0.20 0.20 0.20 0.20 0.19 0.19 0.18 0.17 0.16 0.15 0.15 0.14 0.14 0.13 0.13 0.12 0.12 0.11 0.11 0.10 0.10 0.10 0.09 0.09 0.08 0.08 0.08 0.08 0.08 0.07 0.07 0.07 0.07 0.07 0.07 0.07 0.06 0.06 0.06 0.06 0.06 0.06 0.06 0.06 0.06 0.06 0.06 0.06 0.06 0.06
0.28 0.27 0.26 0.26 0.25 0.24 0.24 0.23 0.22 0.21 0.20 0.20 0.20 0.19 0.20 0.19 0.19 0.19 0.18 0.17 0.16 0.16 0.15 0.14 0.14 0.13 0.13 0.12 0.12 0.11 0.11 0.10 0.10 0.10 0.09 0.09 0.09 0.09 0.08 0.08 0.08 0.07 0.07 0.07 0.07 0.07 0.07 0.07 0.06 0.06 0.06 0.06 0.06 0.06 0.06 0.06 0.06 0.06 0.06 0.05 0.05 0.05 0.05
0.25 0.26 0.25 0.24 0.24 0.23 0.22 0.21 0.21 0.20 0.20 0.20 0.20 0.19 0.19 0.19 0.18 0.17 0.16 0.16 0.15 0.15 0.14 0.14 0.13 0.13 0.12 0.12 0.11 0.11 0.11 0.10 0.10 0.10 0.09 0.09 0.09 0.08 0.08 0.08 0.07 0.07 0.07 0.07 0.07 0.07 0.06 0.06 0.06 0.06 0.06 0.06 0.05 0.06 0.05 0.05 0.06 0.06 0.06 0.05 0.05 0.05 0.05
0.24 0.24 0.23 0.23 0.22 0.21 0.21 0.21 0.20 0.20 0.20 0.20 0.19 0.19 0.18 0.17 0.16 0.16 0.15 0.14 0.14 0.14 0.14 0.13 0.13 0.12 0.12 0.11 0.11 0.11 0.10 0.10 0.10 0.09 0.09 0.09 0.09 0.08 0.08 0.07 0.07 0.07 0.07 0.07 0.07 0.06 0.06 0.06 0.05 0.05 0.05 0.06 0.05 0.05 0.05 0.05 0.05 0.05 0.05 0.05 0.05 0.05 0.05

ECMWFFLT1_prec_pwat_348.txt.gz
Precipitable_Water
0.48 0.49 0.50 0.51 0.52 0.52 0.53 0.54 0.54 0.54 0.54 0.54 0.54 0.54 0.55 0.54 0.54 0.54 0.53 0.52 0.51 0.50 0.50 0.48 0.46 0.44 0.41 0.40 0.38 0.36 0.35 0.34 0.33 0.31 0.31 0.34 0.41 0.47 0.50 0.48 0.46 0.44 0.43 0.44 0.44 0.42 0.40 0.38 0.35 0.31 0.30 0.28 0.27 0.27 0.27 0.26 0.26 0.25 0.25 0.24 0.24 0.25 0.27
0.49 0.50 0.51 0.51 0.51 0.52 0.53 0.53 0.54 0.54 0.54 0.54 0.53 0.53 0.53 0.53 0.52 0.51 0.51 0.50 0.49 0.49 0.48 0.47 0.44 0.42 0.39 0.37 0.35 0.32 0.31 0.30 0.30 0.30 0.30 0.33 0.41 0.49 0.50 0.51 0.48 0.45 0.43 0.41 0.41 0.40 0.39 0.37 0.34 0.30 0.30 0.28 0.26 0.25 0.25 0.25 0.25 0.25 0.24 0.24 0.24 0.24 0.25
0.49 0.50 0.51 0.51 0.51 0.52 0.52 0.53 0.53 0.54 0.53 0.53 0.53 0.52 0.51 0.51 0.51 0.50 0.49 0.49 0.48 0.48 0.47 0.44 0.41 0.38 0.37 0.36 0.34 0.32 0.30 0.29 0.29 0.30 0.32 0.36 0.44 0.50 0.51 0.50 0.49 0.45 0.41 0.39 0.38 0.38 0.36 0.34 0.32 0.29 0.28 0.27 0.26 0.25 0.25 0.24 0.24 0.24 0.24 0.24 0.24 0.24 0.25
0.50 0.50 0.50 0.50 0.51 0.51 0.52 0.52 0.52 0.53 0.53 0.52 0.52 0.51 0.51 0.51 0.50 0.50 0.49 0.48 0.47 0.46 0.44 0.42 0.39 0.37 0.36 0.35 0.33 0.33 0.32 0.32 0.34 0.36 0.39 0.42 0.47 0.51 0.50 0.48 0.46 0.43 0.39 0.37 0.35 0.35 0.33 0.32 0.30 0.28 0.28 0.27 0.25 0.25 0.24 0.24 0.24 0.24 0.23 0.24 0.24 0.24 0.24
0.49 0.49 0.49 0.49 0.50 0.51 0.51 0.51 0.52 0.51 0.52 0.52 0.52 0.51 0.51 0.50 0.50 0.49 0.48 0.47 0.45 0.43 0.41 0.38 0.35 0.34 0.33 0.33 0.34 0.36 0.37 0.37 0.38 0.41 0.44 0.47 0.48 0.49 0.47 0.44 0.42 0.40 0.38 0.36 0.34 0.33 0.32 0.30 0.28 0.27 0.26 0.25 0.23 0.24 0.24 0.24 0.23 0.23 0.23 0.23 0.23 0.23 0.23
0.48 0.48 0.49 0.49 0.50 0.50 0.51 0.51 0.51 0.51 0.51 0.51 0.51 0.50 0.50 0.50 0.49 0.48 0.47 0.45 0.42 0.40 0.38 0.36 0.34 0.34 0.34 0.35 0.36 0.38 0.40 0.41 0.42 0.44 0.46 0.46 0.46 0.45 0.43 0.41 0.39 0.38 0.36 0.35 0.33 0.30 0.29 0.28 0.26 0.25 0.24 0.24 0.23 0.22 0.22 0.22 0.22 0.22 0.22 0.22 0.22 0.22 0.23
0.47 0.48 0.49 0.49 0.50 0.50 0.50 0.50 0.50 0.50 0.50 0.50 0.50 0.49 0.49 0.48 0.47 0.46 0.44 0.41 0.39 0.37 0.36 0.35 0.35 0.35 0.36 0.37 0.39 0.40 0.41 0.42 0.43 0.43 0.42 0.41 0.41 0.40 0.39 0.38 0.37 0.35 0.33 0.32 0.30 0.28 0.27 0.26 0.25 0.24 0.22 0.23 0.23 0.23 0.22 0.21 0.21 0.20 0.21 0.22 0.22 0.22 0.23
0.47 0.48 0.48 0.49 0.49 0.49 0.49 0.49 0.49 0.49 0.49 0.49 0.49 0.49 0.48 0.47 0.46 0.44 0.41 0.38 0.37 0.36 0.35 0.36 0.36 0.37 0.38 0.38 0.39 0.40 0.41 0.43 0.43 0.42 0.41 0.40 0.39 0.38 0.36 0.35 0.34 0.32 0.31 0.29 0.28 0.26 0.25 0.25 0.23 0.23 0.23 0.23 0.23 0.22 0.22 0.22 0.22 0.21 0.21 0.22 0.22 0.22 0.21
0.48 0.47 0.48 0.48 0.48 0.49 0.49 0.48 0.49 0.49 0.48 0.48 0.48 0.48 0.47 0.46 0.44 0.41 0.39 0.37 0.36 0.36 0.37 0.37 0.38 0.38 0.38 0.39 0.40 0.41 0.41 0.41 0.41 0.40 0.39 0.39 0.38 0.37 0.36 0.35 0.33 0.32 0.29 0.28 0.26 0.25 0.24 0.23 0.23 0.23 0.23 0.23 0.23 0.22 0.22 0.23 0.23 0.22 0.22 0.21 0.21 0.21 0.21
0.47 0.47 0.47 0.47 0.48 0.48 0.48 0.48 0.48 0.48 0.48 0.47 0.46 0.45 0.45 0.43 0.41 0.38 0.37 0.37 0.37 0.37 0.38 0.39 0.40 0.40 0.40 0.40 0.40 0.40 0.40 0.40 0.40 0.40 0.40 0.40 0.39 0.37 0.35 0.33 0.31 0.29 0.28 0.26 0.25 0.24 0.23 0.23 0.22 0.23 0.23 0.23 0.23 0.24 0.24 0.23 0.23 0.21 0.21 0.20 0.20 0.20 0.20
0.47 0.47 0.47 0.47 0.47 0.47 0.47 0.47 0.47 0.47 0.47 0.46 0.44 0.43 0.42 0.39 0.37 0.36 0.36 0.36 0.37 0.38 0.39 0.40 0.41 0.41 0.41 0.41 0.40 0.40 0.40 0.41 0.41 0.40 0.39 0.37 0.36 0.34 0.32 0.30 0.29 0.28 0.27 0.26 0.25 0.24 0.24 0.24 0.24 0.24 0.24 0.24 0.24 0.24 0.23 0.22 0.22 0.21 0.21 0.20 0.19 0.18 0.19
0.46 0.47 0.47 0.47 0.47 0.46 0.46 0.47 0.47 0.46 0.45 0.44 0.43 0.41 0.39 0.36 0.35 0.35 0.36 0.37 0.38 0.40 0.41 0.41 0.41 0.41 0.40 0.40 0.40 0.40 0.39 0.38 0.37 0.36 0.34 0.33 0.32 0.31 0.30 0.30 0.28 0.27 0.26 0.26 0.25 0.25 0.25 0.25 0.24 0.24 0.24 0.24 0.23 0.23 0.22 0.22 0.21 0.20 0.20 0.19 0.18 0.18 0.17
0.46 0.46 0.47 0.46 0.46 0.46 0.46 0.46 0.46 0.45 0.44 0.42 0.41 0.39 0.37 0.36 0.36 0.36 0.37 0.38 0.39 0.40 0.40 0.40 0.40 0.40 0.39 0.39 0.39 0.38 0.36 0.35 0.34 0.33 0.32 0.32 0.31 0.31 0.30 0.30 0.29 0.28 0.27 0.27 0.26 0.25 0.25 0.25 0.25 0.24 0.24 0.24 0.23 0.23 0.21 0.21 0.20 0.19 0.19 0.18 0.17 0.17 0.16
0.46 0.46 0.46 0.46 0.46 0.45 0.45 0.44 0.44 0.44 0.42 0.40 0.39 0.38 0.36 0.36 0.36 0.37 0.38 0.39 0.40 0.40 0.40 0.40 0.39 0.39 0.38 0.38 0.37 0.36 0.35 0.34 0.33 0.32 0.32 0.31 0.31 0.31 0.30 0.30 0.29 0.28 0.28 0.27 0.27 0.26 0.25 0.25 0.25 0.23 0.23 0.23 0.22 0.21 0.19 0.19 0.18 0.18 0.18 0.17 0.17 0.17 0.17
0.46 0.46 0.46 0.46 0.45 0.45 0.44 0.44 0.44 0.43 0.41 0.40 0.39 0.37 0.36 0.36 0.37 0.38 0.38 0.39 0.40 0.40 0.40 0.40 0.39 0.38 0.37 0.36 0.35 0.35 0.34 0.34 0.33 0.32 0.32 0.31 0.30 0.30 0.30 0.29 0.29 0.28 0.27 0.26 0.26 0.25 0.24 0.23 0.23 0.22 0.22 0.21 0.21 0.20 0.19 0.19 0.18 0.18 0.18 0.18 0.18 0.18 0.17
0.47 0.46 0.46 0.46 0.45 0.44 0.44 0.44 0.43 0.42 0.40 0.39 0.38 0.36 0.36 0.36 0.37 0.37 0.38 0.38 0.39 0.39 0.39 0.38 0.38 0.37 0.36 0.36 0.35 0.35 0.34 0.33 0.33 0.31 0.31 0.30 0.29 0.29 0.28 0.28 0.28 0.27 0.26 0.25 0.24 0.23 0.23 0.22 0.21 0.21 0.21 0.21 0.21 0.20 0.19 0.19 0.19 0.18 0.18 0.17 0.16 0.15 0.15
0.47 0.47 0.46 0.45 0.44 0.43 0.43 0.43 0.43 0.41 0.40 0.39 0.38 0.36 0.36 0.36 0.36 0.37 0.37 0.37 0.37 0.37 0.37 0.37 0.36 0.36 0.36 0.35 0.35 0.34 0.33 0.33 0.32 0.31 0.30 0.29 0.28 0.27 0.26 0.26 0.26 0.25 0.24 0.24 0.23 0.23 0.22 0.22 0.22 0.21 0.21 0.21 0.21 0.20 0.19 0.18 0.17 0.16 0.17 0.16 0.15 0.14 0.14
0.47 0.46 0.46 0.45 0.44 0.44 0.43 0.42 0.42 0.40 0.39 0.38 0.37 0.36 0.35 0.36 0.36 0.36 0.36 0.36 0.36 0.35 0.35 0.35 0.35 0.34 0.34 0.33 0.33 0.33 0.33 0.32 0.31 0.29 0.28 0.27 0.26 0.25 0.24 0.24 0.24 0.23 0.23 0.23 0.22 0.22 0.21 0.21 0.20 0.19 0.18 0.18 0.18 0.18 0.17 0.16 0.15 0.15 0.15 0.14 0.14 0.13 0.13
0.46 0.45 0.45 0.45 0.44 0.44 0.42 0.41 0.41 0.40 0.39 0.38 0.37 0.36 0.36 0.36 0.36 0.35 0.35 0.35 0.34 0.34 0.34 0.33 0.33 0.33 0.32 0.32 0.32 0.31 0.31 0.29 0.28 0.27 0.26 0.25 0.24 0.23 0.22 0.22 0.22 0.21 0.20 0.20 0.19 0.19 0.18 0.18 0.18 0.17 0.17 0.16 0.16 0.16 0.16 0.16 0.15 0.15 0.15 0.14 0.13 0.12 0.11
0.46 0.44 0.44 0.44 0.44 0.43 0.42 0.41 0.40 0.39 0.39 0.38 0.37 0.36 0.36 0.36 0.35 0.34 0.34 0.33 0.33 0.32 0.32 0.32 0.32 0.31 0.31 0.30 0.30 0.29 0.28 0.27 0.26 0.25 0.24 0.23 0.22 0.21 0.20 0.21 0.20 0.20 0.19 0.18 0.18 0.17 0.17 0.17 0.17 0.17 0.16 0.16 0.15 0.15 0.15 0.15 0.15 0.15 0.14 0.13 0.12 0.12 0.11
0.45 0.44 0.43 0.44 0.44 0.42 0.41 0.40 0.39 0.38 0.38 0.38 0.37 0.37 0.36 0.36 0.35 0.35 0.33 0.33 0.32 0.31 0.31 0.30 0.30 0.30 0.30 0.29 0.28 0.27 0.27 0.26 0.25 0.24 0.23 0.22 0.21 0.20 0.20 0.20 0.19 0.19 0.18 0.18 0.17 0.17 0.17 0.17 0.16 0.16 0.16 0.15 0.15 0.15 0.15 0.15 0.15 0.14 0.14 0.13 0.12 0.11 0.11
0.43 0.43 0.43 0.43 0.43 0.42 0.40 0.40 0.39 0.38 0.38 0.38 0.37 0.37 0.36 0.36 0.35 0.35 0.33 0.32 0.31 0.31 0.30 0.30 0.30 0.29 0.28 0.27 0.27 0.26 0.25 0.25 0.24 0.23 0.22 0.22 0.21 0.21 0.20 0.20 0.19 0.19 0.18 0.18 0.18 0.17 0.17 0.16 0.16 0.15 0.15 0.15 0.14 0.14 0.15 0.14 0.14 0.14 0.14 0.14 0.13 0.12 0.11
0.42 0.43 0.42 0.42 0.41 0.41 0.40 0.39 0.38 0.38 0.38 0.38 0.38 0.37 0.36 0.36 0.35 0.35 0.34 0.32 0.31 0.30 0.30 0.30 0.29 0.28 0.27 0.26 0.26 0.25 0.25 0.24 0.24 0.23 0.22 0.22 0.22 0.21 0.21 0.21 0.20 0.19 0.19 0.18 0.18 0.17 0.16 0.16 0.15 0.15 0.14 0.14 0.14 0.14 0.14 0.14 0.14 0.14 0.14 0.14 0.13 0.13 0.13
0.42 0.42 0.41 0.40 0.40 0.39 0.39 0.38 0.38 0.38 0.38 0.38 0.38 0.37 0.36 0.35 0.35 0.34 0.33 0.33 0.31 0.31 0.30 0.29 0.28 0.27 0.27 0.26 0.25 0.25 0.24 0.24 0.24 0.23 0.23 0.23 0.22 0.21 0.21 0.20 0.20 0.19 0.19 0.18 0.18 0.17 0.16 0.16 0.16 0.15 0.15 0.15 0.15 0.15 0.15 0.15 0.15 0.14 0.14 0.13 0.13 0.13 0.13
0.41 0.41 0.40 0.39 0.38 0.38 0.38 0.38 0.37 0.37 0.37 0.37 0.37 0.37 0.36 0.35 0.34 0.33 0.33 0.32 0.31 0.31 0.29 0.28 0.28 0.27 0.26 0.26 0.25 0.25 0.24 0.24 0.23 0.23 0.22 0.22 0.21 0.21 0.20 0.20 0.19 0.19 0.18 0.18 0.17 0.17 0.16 0.16 0.16 0.16 0.16 0.16 0.16 0.15 0.15 0.15 0.15 0.14 0.14 0.13 0.13 0.13 0.13
0.40 0.39 0.39 0.38 0.38 0.37 0.37 0.37 0.36 0.36 0.37 0.37 0.37 0.36 0.36 0.35 0.34 0.33 0.32 0.32 0.31 0.30 0.29 0.28 0.27 0.27 0.26 0.25 0.25 0.24 0.24 0.23 0.23 0.23 0.22 0.22 0.21 0.21 0.20 0.20 0.19 0.19 0.18 0.18 0.17 0.17 0.16 0.16 0.16 0.16 0.16 0.16 0.16 0.15 0.15 0.15 0.14 0.13 0.13 0.13 0.13 0.12 0.12
0.38 0.38 0.37 0.37 0.37 0.36 0.36 0.36 0.36 0.36 0.36 0.36 0.36 0.36 0.35 0.34 0.33 0.33 0.32 0.31 0.30 0.29 0.28 0.28 0.27 0.26 0.25 0.25 0.25 0.24 0.24 0.23 0.23 0.23 0.22 0.21 0.21 0.20 0.20 0.19 0.19 0.18 0.18 0.18 0.17 0.17 0.16 0.16 0.16 0.16 0.16 0.15 0.15 0.15 0.14 0.14 0.14 0.13 0.13 0.12 0.12 0.12 0.11
0.38 0.37 0.37 0.36 0.36 0.35 0.35 0.35 0.35 0.35 0.35 0.35 0.34 0.34 0.34 0.33 0.33 0.32 0.31 0.30 0.29 0.29 0.28 0.27 0.26 0.26 0.25 0.24 0.24 0.23 0.23 0.23 0.23 0.22 0.22 0.21 0.21 0.20 0.19 0.19 0.19 0.19 0.18 0.18 0.17 0.17 0.17 0.16 0.16 0.15 0.15 0.15 0.15 0.14 0.14 0.14 0.13 0.13 0.12 0.12 0.12 0.11 0.11
0.38 0.38 0.37 0.36 0.35 0.35 0.34 0.34 0.34 0.35 0.35 0.34 0.34 0.33 0.33 0.32 0.32 0.31 0.31 0.30 0.29 0.28 0.27 0.26 0.25 0.24 0.24 0.23 0.23 0.22 0.22 0.22 0.22 0.22 0.21 0.21 0.20 0.19 0.19 0.19 0.18 0.18 0.17 0.17 0.17 0.16 0.16 0.16 0.15 0.15 0.15 0.14 0.14 0.14 0.13 0.13 0.13 0.13 0.12 0.12 0.12 0.11 0.10
0.38 0.38 0.37 0.36 0.36 0.35 0.34 0.34 0.34 0.35 0.34 0.34 0.33 0.32 0.32 0.31 0.31 0.30 0.29 0.29 0.28 0.27 0.25 0.25 0.24 0.23 0.23 0.22 0.22 0.22 0.21 0.21 0.21 0.21 0.20 0.20 0.19 0.19 0.18 0.18 0.17 0.17 0.16 0.16 0.16 0.16 0.15 0.15 0.15 0.14 0.14 0.14 0.13 0.13 0.13 0.13 0.12 0.12 0.12 0.11 0.11 0.10 0.10
0.38 0.37 0.37 0.36 0.35 0.35 0.35 0.35 0.34 0.34 0.33 0.33 0.32 0.31 0.31 0.30 0.29 0.29 0.28 0.27 0.26 0.25 0.24 0.23 0.23 0.22 0.22 0.22 0.22 0.21 0.21 0.21 0.21 0.20 0.19 0.19 0.19 0.18 0.18 0.17 0.17 0.16 0.16 0.16 0.15 0.15 0.15 0.15 0.14 0.14 0.14 0.13 0.13 0.13 0.12 0.12 0.12 0.12 0.12 0.11 0.11 0.10 0.10
0.36 0.36 0.35 0.35 0.35 0.34 0.33 0.33 0.33 0.33 0.32 0.32 0.31 0.30 0.30 0.29 0.28 0.27 0.26 0.26 0.25 0.24 0.23 0.23 0.22 0.22 0.22 0.21 0.21 0.21 0.21 0.21 0.20 0.20 0.19 0.19 0.18 0.18 0.17 0.17 0.16 0.16 0.16 0.15 0.15 0.15 0.14 0.14 0.14 0.14 0.13 0.13 0.13 0.12 0.12 0.12 0.12 0.11 0.11 0.11 0.10 0.10 0.10
0.35 0.34 0.34 0.34 0.33 0.33 0.32 0.32 0.32 0.31 0.31 0.31 0.30 0.29 0.28 0.28 0.27 0.26 0.25 0.25 0.24 0.23 0.23 0.22 0.22 0.21 0.21 0.21 0.21 0.21 0.20 0.20 0.19 0.19 0.18 0.18 0.17 0.17 0.17 0.16 0.16 0.16 0.15 0.15 0.14 0.14 0.14 0.14 0.13 0.13 0.13 0.13 0.12 0.12 0.12 0.12 0.11 0.11 0.11 0.11 0.10 0.10 0.10
0.33 0.33 0.33 0.32 0.32 0.31 0.31 0.31 0.30 0.30 0.30 0.29 0.28 0.27 0.27 0.26 0.25 0.25 0.25 0.24 0.23 0.22 0.22 0.21 0.21 0.21 0.21 0.21 0.20 0.20 0.20 0.19 0.19 0.18 0.18 0.17 0.17 0.17 0.16 0.16 0.16 0.15 0.15 0.14 0.14 0.14 0.14 0.13 0.13 0.13 0.13 0.12 0.12 0.12 0.12 0.12 0.11 0.11 0.11 0.10 0.10 0.10 0.09
0.31 0.31 0.31 0.31 0.30 0.30 0.29 0.29 0.29 0.28 0.28 0.27 0.27 0.26 0.26 0.25 0.24 0.23 0.23 0.23 0.22 0.22 0.21 0.20 0.20 0.20 0.20 0.20 0.20 0.19 0.19 0.18 0.18 0.17 0.17 0.17 0.16 0.16 0.16 0.15 0.15 0.15 0.14 0.14 0.14 0.14 0.13 0.13 0.13 0.13 0.13 0.12 0.12 0.12 0.11 0.11 0.11 0.11 0.10 0.10 0.10 0.09 0.09
0.29 0.29 0.29 0.29 0.29 0.29 0.28 0.28 0.27 0.27 0.26 0.26 0.25 0.25 0.24 0.23 0.22 0.22 0.21 0.21 0.21 0.21 0.20 0.20 0.20 0.20 0.20 0.19 0.19 0.18 0.18 0.17 0.17 0.17 0.16 0.16 0.16 0.15 0.15 0.15 0.14 0.14 0.14 0.13 0.13 0.13 0.13 0.13 0.13 0.12 0.12 0.12 0.12 0.11 0.11 0.11 0.10 0.10 0.10 0.10 0.09 0.09 0.09

ECMWFFLT1_prec_pwat_354.txt.gz
Precipitable_Water
0.58 0.58 0.57 0.54 0.51 0.50 0.50 0.50 0.51 0.52 0.53 0.52 0.52 0.52 0.53 0.53 0.54 0.53 0.54 0.54 0.55 0.55 0.55 0.54 0.55 0.55 0.56 0.57 0.56 0.57 0.58 0.59 0.60 0.60 0.60 0.60 0.58 0.56 0.56 0.56 0.53 0.49 0.47 0.46 0.44 0.40 0.36 0.35 0.34 0.33 0.34 0.34 0.34 0.35 0.36 0.38 0.39 0.41 0.41 0.41 0.41 0.40 0.37
0.58 0.58 0.57 0.55 0.51 0.50 0.51 0.51 0.52 0.52 0.52 0.51 0.51 0.52 0.53 0.53 0.53 0.52 0.52 0.53 0.53 0.53 0.54 0.54 0.54 0.55 0.55 0.56 0.56 0.56 0.57 0.58 0.59 0.59 0.58 0.58 0.57 0.56 0.56 0.57 0.53 0.49 0.47 0.42 0.41 0.38 0.36 0.34 0.33 0.33 0.36 0.36 0.36 0.37 0.39 0.39 0.39 0.39 0.38 0.37 0.36 0.34 0.32
0.58 0.58 0.57 0.55 0.52 0.51 0.51 0.51 0.52 0.52 0.52 0.52 0.52 0.52 0.52 0.53 0.53 0.52 0.52 0.52 0.52 0.52 0.53 0.53 0.53 0.53 0.54 0.55 0.54 0.55 0.55 0.57 0.57 0.58 0.57 0.57 0.57 0.56 0.56 0.56 0.54 0.49 0.43 0.40 0.38 0.37 0.34 0.32 0.33 0.34 0.37 0.40 0.41 0.41 0.42 0.43 0.42 0.41 0.38 0.36 0.33 0.32 0.32
0.58 0.58 0.57 0.55 0.52 0.50 0.50 0.51 0.52 0.52 0.53 0.53 0.53 0.52 0.52 0.52 0.52 0.52 0.52 0.52 0.51 0.52 0.52 0.52 0.52 0.52 0.53 0.53 0.52 0.52 0.52 0.53 0.55 0.56 0.56 0.56 0.56 0.56 0.54 0.53 0.51 0.49 0.44 0.41 0.37 0.36 0.33 0.33 0.33 0.35 0.39 0.43 0.45 0.45 0.44 0.43 0.42 0.40 0.38 0.34 0.31 0.30 0.30
0.58 0.57 0.56 0.53 0.51 0.50 0.51 0.52 0.53 0.53 0.53 0.53 0.53 0.53 0.52 0.52 0.52 0.52 0.52 0.52 0.52 0.52 0.51 0.51 0.50 0.50 0.50 0.51 0.50 0.50 0.50 0.51 0.52 0.53 0.54 0.54 0.53 0.53 0.52 0.50 0.47 0.45 0.44 0.39 0.36 0.34 0.34 0.34 0.36 0.38 0.40 0.43 0.45 0.44 0.43 0.42 0.41 0.39 0.36 0.32 0.30 0.28 0.28
0.56 0.55 0.54 0.53 0.51 0.51 0.52 0.53 0.53 0.53 0.53 0.53 0.53 0.53 0.53 0.53 0.52 0.52 0.52 0.52 0.52 0.52 0.52 0.50 0.50 0.49 0.49 0.49 0.48 0.48 0.49 0.50 0.50 0.50 0.50 0.50 0.50 0.49 0.48 0.47 0.45 0.43 0.41 0.40 0.38 0.35 0.34 0.36 0.37 0.39 0.40 0.42 0.44 0.44 0.42 0.40 0.39 0.36 0.33 0.30 0.27 0.26 0.26
0.54 0.55 0.54 0.53 0.52 0.52 0.53 0.53 0.54 0.54 0.54 0.54 0.53 0.53 0.53 0.52 0.52 0.52 0.52 0.53 0.52 0.52 0.51 0.51 0.50 0.49 0.48 0.48 0.48 0.47 0.47 0.48 0.48 0.48 0.48 0.48 0.47 0.46 0.45 0.43 0.43 0.42 0.41 0.39 0.36 0.35 0.36 0.38 0.40 0.41 0.40 0.41 0.43 0.42 0.41 0.38 0.36 0.33 0.31 0.28 0.27 0.25 0.25
0.54 0.55 0.54 0.53 0.53 0.53 0.54 0.54 0.54 0.54 0.54 0.54 0.53 0.53 0.53 0.53 0.52 0.52 0.52 0.52 0.52 0.52 0.51 0.51 0.50 0.49 0.48 0.48 0.47 0.47 0.47 0.46 0.46 0.47 0.46 0.46 0.45 0.45 0.44 0.43 0.43 0.42 0.40 0.39 0.38 0.38 0.39 0.41 0.41 0.41 0.41 0.41 0.41 0.40 0.38 0.37 0.34 0.31 0.29 0.27 0.26 0.25 0.24
0.55 0.55 0.54 0.54 0.53 0.53 0.54 0.54 0.54 0.55 0.54 0.54 0.54 0.54 0.53 0.53 0.53 0.52 0.51 0.51 0.51 0.51 0.51 0.50 0.49 0.48 0.47 0.47 0.46 0.46 0.46 0.46 0.46 0.44 0.42 0.42 0.43 0.42 0.42 0.41 0.40 0.40 0.40 0.40 0.41 0.41 0.43 0.42 0.41 0.41 0.40 0.39 0.38 0.38 0.37 0.35 0.33 0.30 0.28 0.26 0.24 0.23 0.24
0.56 0.55 0.54 0.53 0.53 0.53 0.54 0.55 0.55 0.56 0.55 0.54 0.54 0.53 0.53 0.53 0.52 0.52 0.51 0.51 0.50 0.50 0.50 0.49 0.48 0.47 0.46 0.45 0.44 0.43 0.43 0.43 0.42 0.42 0.41 0.39 0.39 0.39 0.39 0.40 0.40 0.41 0.42 0.42 0.41 0.41 0.41 0.40 0.40 0.39 0.39 0.38 0.37 0.37 0.36 0.33 0.31 0.28 0.27 0.25 0.24 0.24 0.24
0.54 0.54 0.53 0.53 0.53 0.53 0.54 0.55 0.56 0.55 0.55 0.54 0.54 0.53 0.53 0.52 0.52 0.51 0.51 0.50 0.49 0.48 0.48 0.48 0.48 0.46 0.44 0.43 0.41 0.41 0.40 0.40 0.39 0.39 0.39 0.40 0.42 0.43 0.44 0.43 0.43 0.42 0.42 0.41 0.40 0.40 0.40 0.39 0.38 0.38 0.38 0.37 0.36 0.35 0.33 0.31 0.29 0.28 0.27 0.25 0.24 0.23 0.24
0.54 0.54 0.53 0.53 0.53 0.53 0.53 0.54 0.55 0.55 0.55 0.55 0.54 0.54 0.53 0.52 0.51 0.50 0.50 0.49 0.48 0.47 0.46 0.46 0.46 0.45 0.44 0.42 0.40 0.40 0.39 0.39 0.39 0.40 0.40 0.41 0.42 0.43 0.44 0.45 0.44 0.43 0.42 0.42 0.40 0.39 0.39 0.38 0.37 0.37 0.36 0.35 0.34 0.33 0.32 0.31 0.29 0.28 0.27 0.25 0.25 0.24 0.23
0.53 0.53 0.53 0.53 0.52 0.53 0.54 0.54 0.55 0.55 0.55 0.55 0.55 0.55 0.53 0.51 0.51 0.49 0.48 0.48 0.47 0.46 0.45 0.45 0.44 0.43 0.42 0.42 0.41 0.40 0.39 0.39 0.39 0.39 0.40 0.41 0.41 0.42 0.42 0.42 0.43 0.43 0.43 0.41 0.39 0.38 0.37 0.37 0.36 0.35 0.34 0.33 0.32 0.31 0.29 0.28 0.27 0.27 0.26 0.25 0.24 0.24 0.24
0.53 0.53 0.53 0.53 0.53 0.53 0.53 0.54 0.55 0.55 0.55 0.55 0.55 0.54 0.53 0.51 0.50 0.49 0.48 0.47 0.46 0.45 0.44 0.43 0.42 0.41 0.40 0.40 0.40 0.39 0.39 0.39 0.39 0.38 0.39 0.39 0.39 0.39 0.39 0.39 0.40 0.39 0.39 0.38 0.37 0.36 0.35 0.36 0.35 0.32 0.31 0.30 0.29 0.28 0.27 0.26 0.26 0.26 0.25 0.24 0.24 0.25 0.25
0.52 0.53 0.53 0.53 0.53 0.53 0.53 0.55 0.56 0.55 0.56 0.55 0.55 0.54 0.53 0.52 0.50 0.48 0.47 0.46 0.46 0.45 0.44 0.42 0.41 0.40 0.39 0.39 0.39 0.39 0.39 0.38 0.38 0.38 0.38 0.38 0.38 0.38 0.38 0.37 0.37 0.36 0.36 0.36 0.36 0.35 0.34 0.33 0.32 0.30 0.29 0.28 0.28 0.28 0.27 0.27 0.26 0.26 0.26 0.26 0.27 0.26 0.26
0.54 0.54 0.53 0.53 0.53 0.53 0.53 0.55 0.55 0.55 0.55 0.56 0.55 0.53 0.51 0.49 0.48 0.47 0.46 0.45 0.44 0.44 0.43 0.41 0.40 0.39 0.39 0.39 0.38 0.38 0.38 0.39 0.39 0.38 0.37 0.37 0.37 0.37 0.36 0.36 0.36 0.36 0.35 0.35 0.34 0.33 0.32 0.31 0.30 0.29 0.29 0.28 0.28 0.28 0.28 0.28 0.28 0.28 0.27 0.26 0.26 0.25 0.26
0.53 0.54 0.54 0.53 0.54 0.53 0.53 0.54 0.55 0.55 0.55 0.55 0.54 0.52 0.49 0.48 0.47 0.46 0.45 0.44 0.43 0.43 0.41 0.40 0.39 0.39 0.38 0.38 0.38 0.39 0.39 0.39 0.38 0.37 0.36 0.36 0.35 0.35 0.35 0.35 0.35 0.35 0.34 0.33 0.32 0.31 0.31 0.30 0.30 0.29 0.29 0.29 0.29 0.28 0.29 0.28 0.27 0.26 0.27 0.26 0.25 0.25 0.24
0.53 0.53 0.53 0.53 0.53 0.54 0.54 0.54 0.55 0.55 0.55 0.54 0.53 0.51 0.48 0.47 0.45 0.45 0.44 0.43 0.43 0.42 0.40 0.40 0.39 0.38 0.38 0.38 0.39 0.39 0.39 0.38 0.37 0.36 0.35 0.35 0.34 0.33 0.32 0.32 0.33 0.33 0.33 0.32 0.32 0.32 0.31 0.31 0.30 0.30 0.30 0.29 0.29 0.29 0.28 0.27 0.25 0.26 0.26 0.24 0.24 0.22 0.22
0.52 0.52 0.53 0.54 0.54 0.54 0.54 0.54 0.54 0.54 0.53 0.52 0.51 0.50 0.48 0.46 0.45 0.44 0.43 0.42 0.41 0.40 0.39 0.39 0.39 0.38 0.39 0.39 0.39 0.39 0.39 0.38 0.37 0.35 0.34 0.33 0.32 0.31 0.30 0.31 0.31 0.30 0.30 0.30 0.30 0.30 0.30 0.30 0.30 0.30 0.30 0.30 0.29 0.28 0.28 0.27 0.26 0.25 0.23 0.22 0.22 0.21 0.20
0.51 0.51 0.51 0.53 0.53 0.53 0.54 0.53 0.53 0.52 0.51 0.50 0.50 0.49 0.47 0.46 0.44 0.43 0.42 0.41 0.39 0.38 0.38 0.38 0.38 0.39 0.39 0.39 0.39 0.39 0.38 0.37 0.35 0.34 0.33 0.32 0.31 0.30 0.30 0.30 0.30 0.29 0.29 0.28 0.28 0.28 0.28 0.28 0.28 0.28 0.28 0.28 0.27 0.27 0.26 0.25 0.24 0.23 0.22 0.20 0.20 0.19 0.18
0.50 0.50 0.50 0.52 0.53 0.53 0.53 0.52 0.51 0.51 0.50 0.49 0.49 0.48 0.47 0.45 0.43 0.43 0.42 0.40 0.39 0.38 0.37 0.37 0.38 0.38 0.38 0.38 0.38 0.38 0.38 0.36 0.35 0.33 0.32 0.32 0.31 0.31 0.31 0.30 0.29 0.28 0.28 0.28 0.27 0.27 0.27 0.26 0.26 0.25 0.25 0.24 0.24 0.23 0.22 0.22 0.21 0.20 0.19 0.18 0.17 0.16 0.16
0.49 0.49 0.50 0.51 0.51 0.51 0.51 0.51 0.50 0.49 0.49 0.48 0.48 0.48 0.47 0.44 0.43 0.42 0.41 0.39 0.38 0.37 0.37 0.37 0.37 0.38 0.38 0.38 0.38 0.37 0.36 0.35 0.34 0.32 0.32 0.31 0.31 0.31 0.30 0.29 0.28 0.28 0.27 0.26 0.26 0.25 0.24 0.24 0.23 0.23 0.23 0.22 0.22 0.21 0.21 0.20 0.20 0.19 0.19 0.18 0.18 0.17 0.17
0.48 0.48 0.48 0.48 0.49 0.49 0.49 0.49 0.49 0.49 0.48 0.48 0.48 0.47 0.46 0.44 0.42 0.41 0.40 0.38 0.37 0.37 0.37 0.37 0.37 0.37 0.37 0.37 0.37 0.36 0.36 0.35 0.34 0.32 0.31 0.31 0.31 0.30 0.29 0.28 0.27 0.27 0.26 0.25 0.25 0.24 0.23 0.23 0.23 0.22 0.22 0.22 0.21 0.21 0.21 0.20 0.20 0.20 0.19 0.19 0.19 0.19 0.19
0.48 0.47 0.46 0.45 0.46 0.47 0.47 0.47 0.47 0.47 0.47 0.47 0.47 0.46 0.45 0.44 0.42 0.41 0.40 0.39 0.37 0.37 0.37 0.36 0.36 0.36 0.36 0.36 0.35 0.35 0.35 0.34 0.33 0.32 0.31 0.30 0.30 0.29 0.28 0.27 0.26 0.26 0.25 0.25 0.24 0.23 0.23 0.23 0.22 0.22 0.22 0.22 0.22 0.22 0.21 0.21 0.21 0.20 0.20 0.20 0.20 0.20 0.19
0.46 0.45 0.45 0.44 0.44 0.45 0.45 0.46 0.46 0.45 0.46 0.45 0.45 0.45 0.44 0.43 0.42 0.41 0.39 0.38 0.38 0.37 0.37 0.36 0.36 0.35 0.35 0.34 0.34 0.34 0.34 0.33 0.32 0.31 0.30 0.30 0.29 0.28 0.27 0.27 0.26 0.25 0.25 0.24 0.24 0.23 0.23 0.23 0.23 0.23 0.23 0.23 0.22 0.22 0.22 0.21 0.21 0.21 0.21 0.21 0.20 0.20 0.19
0.43 0.43 0.43 0.42 0.42 0.43 0.43 0.44 0.44 0.44 0.44 0.44 0.44 0.44 0.43 0.42 0.41 0.40 0.39 0.38 0.37 0.37 0.36 0.36 0.36 0.35 0.35 0.34 0.33 0.33 0.32 0.31 0.31 0.30 0.29 0.28 0.28 0.27 0.27 0.26 0.26 0.25 0.24 0.24 0.23 0.23 0.23 0.23 0.23 0.23 0.23 0.23 0.22 0.22 0.21 0.21 0.21 0.21 0.20 0.20 0.20 0.19 0.19
0.41 0.41 0.40 0.40 0.40 0.41 0.41 0.41 0.42 0.42 0.42 0.42 0.42 0.41 0.41 0.41 0.40 0.39 0.38 0.37 0.37 0.36 0.36 0.35 0.35 0.35 0.34 0.34 0.33 0.33 0.32 0.30 0.29 0.28 0.28 0.27 0.27 0.26 0.26 0.25 0.25 0.24 0.24 0.23 0.23 0.23 0.23 0.23 0.23 0.23 0.23 0.22 0.22 0.21 0.22 0.22 0.21 0.20 0.20 0.20 0.19 0.19 0.18
0.40 0.39 0.39 0.38 0.38 0.38 0.39 0.39 0.39 0.40 0.40 0.40 0.40 0.40 0.40 0.39 0.38 0.38 0.37 0.36 0.35 0.35 0.35 0.34 0.33 0.33 0.33 0.32 0.32 0.31 0.30 0.29 0.28 0.28 0.27 0.27 0.26 0.26 0.25 0.25 0.25 0.24 0.24 0.24 0.23 0.23 0.23 0.23 0.23 0.22 0.22 0.22 0.22 0.21 0.21 0.21 0.20 0.20 0.19 0.19 0.19 0.18 0.18
0.38 0.38 0.38 0.38 0.37 0.37 0.36 0.37 0.37 0.38 0.39 0.39 0.39 0.39 0.38 0.37 0.37 0.37 0.36 0.35 0.34 0.33 0.33 0.32 0.31 0.31 0.30 0.30 0.29 0.29 0.28 0.27 0.27 0.26 0.26 0.26 0.25 0.25 0.24 0.24 0.24 0.23 0.23 0.23 0.23 0.22 0.22 0.22 0.22 0.22 0.22 0.21 0.21 0.21 0.21 0.21 0.20 0.20 0.19 0.19 0.18 0.18 0.17
0.38 0.38 0.38 0.37 0.37 0.37 0.36 0.36 0.37 0.37 0.37 0.37 0.37 0.37 0.37 0.37 0.36 0.36 0.35 0.34 0.33 0.33 0.31 0.30 0.29 0.29 0.29 0.28 0.28 0.27 0.26 0.26 0.26 0.25 0.25 0.24 0.24 0.24 0.24 0.23 0.23 0.23 0.23 0.23 0.22 0.22 0.22 0.22 0.22 0.21 0.21 0.21 0.20 0.20 0.20 0.20 0.19 0.19 0.19 0.18 0.17 0.17 0.17
0.37 0.37 0.37 0.36 0.35 0.36 0.36 0.36 0.36 0.36 0.36 0.35 0.35 0.35 0.35 0.34 0.34 0.34 0.33 0.33 0.31 0.30 0.29 0.28 0.28 0.28 0.28 0.27 0.27 0.26 0.25 0.25 0.25 0.24 0.24 0.23 0.23 0.23 0.23 0.23 0.22 0.22 0.22 0.22 0.22 0.22 0.21 0.21 0.21 0.20 0.20 0.20 0.20 0.19 0.19 0.19 0.19 0.18 0.18 0.17 0.17 0.16 0.16
0.34 0.34 0.34 0.34 0.34 0.33 0.33 0.34 0.34 0.34 0.34 0.34 0.33 0.33 0.33 0.32 0.32 0.32 0.31 0.31 0.30 0.28 0.27 0.27 0.27 0.26 0.26 0.26 0.25 0.25 0.25 0.24 0.24 0.23 0.23 0.23 0.22 0.22 0.22 0.22 0.22 0.22 0.22 0.21 0.21 0.21 0.20 0.20 0.20 0.20 0.20 0.19 0.19 0.19 0.18 0.18 0.18 0.17 0.17 0.16 0.16 0.16 0.15
0.31 0.31 0.32 0.32 0.32 0.32 0.32 0.32 0.32 0.32 0.32 0.32 0.32 0.31 0.31 0.31 0.31 0.30 0.29 0.29 0.27 0.26 0.26 0.26 0.25 0.25 0.25 0.25 0.24 0.24 0.24 0.24 0.23 0.23 0.23 0.22 0.22 0.22 0.22 0.22 0.22 0.22 0.21 0.21 0.21 0.20 0.20 0.20 0.19 0.19 0.19 0.19 0.18 0.18 0.17 0.17 0.17 0.16 0.16 0.15 0.15 0.15 0.15
0.29 0.29 0.29 0.29 0.29 0.30 0.30 0.30 0.30 0.30 0.30 0.30 0.30 0.30 0.30 0.29 0.29 0.29 0.28 0.27 0.26 0.25 0.25 0.25 0.24 0.24 0.24 0.24 0.23 0.23 0.23 0.23 0.23 0.23 0.22 0.22 0.22 0.22 0.22 0.22 0.22 0.21 0.21 0.20 0.20 0.20 0.19 0.19 0.19 0.19 0.18 0.18 0.17 0.17 0.17 0.16 0.16 0.16 0.15 0.15 0.14 0.14 0.14
0.25 0.26 0.26 0.26 0.27 0.27 0.27 0.27 0.28 0.28 0.28 0.28 0.28 0.27 0.27 0.27 0.26 0.25 0.25 0.25 0.25 0.25 0.24 0.23 0.23 0.23 0.23 0.23 0.23 0.23 0.23 0.22 0.22 0.22 0.22 0.22 0.21 0.21 0.21 0.21 0.21 0.20 0.20 0.20 0.19 0.19 0.19 0.19 0.18 0.18 0.17 0.17 0.17 0.16 0.16 0.15 0.15 0.15 0.15 0.14 0.14 0.14 0.14
0.22 0.23 0.24 0.24 0.24 0.25 0.25 0.25 0.25 0.26 0.26 0.26 0.26 0.25 0.25 0.24 0.23 0.23 0.23 0.23 0.23 0.23 0.23 0.23 0.23 0.23 0.22 0.22 0.22 0.22 0.22 0.22 0.21 0.21 0.21 0.21 0.21 0.20 0.20 0.20 0.20 0.19 0.19 0.19 0.19 0.18 0.18 0.18 0.17 0.17 0.17 0.16 0.16 0.16 0.15 0.15 0.15 0.14 0.14 0.14 0.14 0.14 0.13

ECMWFFLT1_prec_pwat_360.txt.gz
Precipitable_Water
0.59 0.58 0.58 0.57 0.56 0.55 0.55 0.55 0.55 0.56 0.57 0.57 0.57 0.58 0.58 0.58 0.58 0.57 0.57 0.57 0.56 0.57 0.56 0.55 0.54 0.55 0.57 0.59 0.59 0.61 0.62 0.63 0.64 0.66 0.66 0.66 0.64 0.62 0.63 0.61 0.58 0.54 0.51 0.52 0.55 0.55 0.55 0.56 0.56 0.54 0.56 0.56 0.57 0.57 0.58 0.58 0.58 0.59 0.60 0.61 0.60 0.59 0.58
0.58 0.59 0.58 0.57 0.57 0.56 0.56 0.55 0.55 0.56 0.56 0.56 0.56 0.56 0.57 0.57 0.57 0.56 0.56 0.56 0.55 0.56 0.56 0.55 0.54 0.55 0.57 0.58 0.58 0.58 0.59 0.61 0.61 0.62 0.62 0.63 0.63 0.62 0.62 0.64 0.59 0.56 0.53 0.50 0.52 0.52 0.54 0.55 0.55 0.52 0.55 0.54 0.54 0.54 0.55 0.55 0.56 0.58 0.59 0.59 0.59 0.58 0.57
0.58 0.58 0.58 0.57 0.57 0.57 0.56 0.56 0.55 0.56 0.56 0.56 0.56 0.56 0.56 0.57 0.57 0.56 0.55 0.55 0.55 0.55 0.55 0.54 0.54 0.54 0.56 0.57 0.56 0.57 0.59 0.60 0.60 0.62 0.62 0.62 0.63 0.62 0.61 0.62 0.62 0.58 0.52 0.51 0.51 0.53 0.52 0.53 0.53 0.52 0.52 0.52 0.53 0.53 0.53 0.53 0.54 0.56 0.57 0.57 0.57 0.56 0.55
0.58 0.58 0.57 0.57 0.57 0.56 0.56 0.56 0.56 0.56 0.57 0.57 0.57 0.57 0.56 0.57 0.57 0.56 0.56 0.55 0.55 0.55 0.55 0.54 0.54 0.55 0.56 0.57 0.56 0.57 0.58 0.60 0.61 0.61 0.61 0.61 0.62 0.61 0.61 0.61 0.62 0.60 0.56 0.52 0.50 0.50 0.51 0.52 0.51 0.51 0.50 0.49 0.50 0.50 0.52 0.52 0.53 0.54 0.54 0.55 0.55 0.54 0.54
0.56 0.56 0.56 0.56 0.56 0.56 0.56 0.57 0.57 0.57 0.57 0.58 0.58 0.58 0.57 0.57 0.57 0.56 0.56 0.55 0.56 0.56 0.56 0.56 0.56 0.57 0.57 0.57 0.55 0.56 0.57 0.58 0.58 0.60 0.61 0.60 0.61 0.61 0.61 0.62 0.61 0.60 0.58 0.54 0.52 0.50 0.51 0.51 0.51 0.51 0.51 0.50 0.48 0.48 0.49 0.50 0.50 0.50 0.51 0.51 0.52 0.51 0.51
0.56 0.55 0.55 0.55 0.56 0.56 0.56 0.57 0.57 0.57 0.57 0.57 0.57 0.57 0.57 0.57 0.56 0.56 0.55 0.56 0.56 0.56 0.57 0.57 0.57 0.57 0.57 0.56 0.55 0.55 0.56 0.57 0.57 0.58 0.58 0.59 0.60 0.61 0.61 0.60 0.60 0.59 0.57 0.55 0.53 0.51 0.50 0.50 0.50 0.50 0.50 0.50 0.49 0.47 0.46 0.46 0.47 0.47 0.47 0.47 0.46 0.47 0.47
0.56 0.57 0.57 0.57 0.57 0.56 0.56 0.56 0.56 0.56 0.56 0.56 0.56 0.56 0.56 0.56 0.56 0.55 0.55 0.56 0.56 0.56 0.56 0.57 0.57 0.57 0.57 0.57 0.56 0.55 0.55 0.55 0.55 0.56 0.57 0.58 0.59 0.60 0.60 0.59 0.58 0.57 0.55 0.53 0.51 0.50 0.49 0.48 0.49 0.48 0.47 0.49 0.48 0.46 0.45 0.44 0.44 0.43 0.44 0.44 0.43 0.42 0.43
0.56 0.57 0.57 0.57 0.57 0.57 0.57 0.56 0.56 0.56 0.56 0.56 0.56 0.55 0.55 0.55 0.55 0.54 0.54 0.54 0.55 0.56 0.56 0.57 0.57 0.58 0.58 0.58 0.57 0.56 0.56 0.55 0.54 0.55 0.55 0.57 0.58 0.58 0.57 0.56 0.55 0.54 0.52 0.50 0.49 0.48 0.47 0.47 0.47 0.47 0.47 0.47 0.45 0.43 0.42 0.42 0.42 0.41 0.40 0.39 0.39 0.39 0.39
0.57 0.56 0.56 0.56 0.56 0.55 0.55 0.54 0.54 0.54 0.54 0.54 0.54 0.54 0.53 0.53 0.53 0.53 0.53 0.54 0.54 0.55 0.56 0.57 0.57 0.58 0.58 0.58 0.58 0.58 0.57 0.56 0.55 0.54 0.53 0.54 0.55 0.55 0.55 0.54 0.53 0.52 0.50 0.49 0.48 0.46 0.46 0.46 0.45 0.46 0.46 0.45 0.44 0.44 0.43 0.43 0.41 0.38 0.37 0.36 0.36 0.36 0.37
0.56 0.56 0.55 0.54 0.54 0.54 0.53 0.53 0.54 0.54 0.54 0.53 0.53 0.53 0.53 0.53 0.53 0.54 0.54 0.54 0.54 0.54 0.56 0.57 0.57 0.58 0.58 0.58 0.58 0.58 0.57 0.56 0.56 0.55 0.54 0.53 0.52 0.52 0.52 0.52 0.51 0.50 0.50 0.48 0.47 0.46 0.46 0.44 0.44 0.45 0.46 0.46 0.46 0.45 0.43 0.41 0.39 0.36 0.36 0.35 0.34 0.34 0.35
0.54 0.55 0.54 0.53 0.52 0.51 0.52 0.52 0.53 0.53 0.53 0.53 0.53 0.53 0.53 0.53 0.52 0.53 0.54 0.54 0.54 0.53 0.55 0.56 0.57 0.57 0.57 0.57 0.57 0.56 0.56 0.55 0.54 0.53 0.53 0.52 0.53 0.53 0.52 0.50 0.49 0.49 0.49 0.47 0.46 0.46 0.45 0.45 0.45 0.45 0.46 0.45 0.45 0.44 0.42 0.40 0.38 0.36 0.35 0.34 0.32 0.31 0.34
0.52 0.52 0.52 0.51 0.51 0.50 0.51 0.51 0.52 0.52 0.53 0.53 0.53 0.53 0.53 0.52 0.51 0.52 0.53 0.54 0.54 0.54 0.55 0.55 0.56 0.57 0.57 0.56 0.55 0.55 0.54 0.53 0.53 0.53 0.52 0.52 0.52 0.52 0.52 0.52 0.50 0.48 0.47 0.47 0.45 0.44 0.45 0.45 0.45 0.45 0.45 0.44 0.43 0.42 0.41 0.39 0.38 0.37 0.35 0.34 0.33 0.33 0.33
0.50 0.50 0.50 0.50 0.50 0.50 0.51 0.51 0.52 0.52 0.53 0.52 0.52 0.51 0.51 0.50 0.50 0.51 0.52 0.53 0.54 0.54 0.55 0.56 0.55 0.55 0.55 0.56 0.55 0.54 0.53 0.53 0.52 0.52 0.52 0.52 0.51 0.50 0.50 0.50 0.50 0.51 0.50 0.49 0.46 0.45 0.44 0.45 0.45 0.44 0.44 0.44 0.43 0.43 0.39 0.39 0.37 0.37 0.37 0.36 0.35 0.35 0.36
0.49 0.50 0.50 0.50 0.50 0.50 0.50 0.51 0.52 0.52 0.52 0.52 0.51 0.50 0.50 0.49 0.49 0.50 0.51 0.52 0.53 0.54 0.55 0.55 0.54 0.54 0.54 0.55 0.54 0.52 0.51 0.51 0.50 0.50 0.49 0.49 0.48 0.48 0.48 0.48 0.49 0.49 0.48 0.48 0.47 0.46 0.44 0.45 0.45 0.44 0.44 0.44 0.43 0.41 0.40 0.39 0.38 0.38 0.38 0.37 0.36 0.38 0.38
0.49 0.49 0.50 0.49 0.49 0.49 0.49 0.50 0.51 0.51 0.51 0.51 0.51 0.50 0.50 0.50 0.50 0.51 0.52 0.53 0.54 0.55 0.55 0.55 0.54 0.54 0.53 0.53 0.52 0.51 0.50 0.49 0.48 0.47 0.46 0.46 0.45 0.45 0.46 0.47 0.47 0.47 0.47 0.47 0.46 0.45 0.45 0.45 0.44 0.44 0.44 0.44 0.43 0.42 0.42 0.41 0.40 0.40 0.39 0.39 0.39 0.38 0.38
0.49 0.49 0.49 0.49 0.49 0.48 0.47 0.48 0.50 0.50 0.51 0.51 0.50 0.50 0.50 0.50 0.51 0.51 0.52 0.52 0.54 0.54 0.54 0.54 0.53 0.52 0.52 0.52 0.51 0.51 0.50 0.48 0.47 0.45 0.44 0.43 0.43 0.44 0.45 0.45 0.46 0.47 0.46 0.46 0.45 0.45 0.44 0.44 0.45 0.45 0.44 0.44 0.43 0.42 0.42 0.41 0.40 0.39 0.38 0.37 0.36 0.35 0.35
0.47 0.48 0.49 0.48 0.48 0.47 0.46 0.47 0.49 0.50 0.50 0.50 0.50 0.50 0.50 0.50 0.50 0.50 0.50 0.51 0.52 0.53 0.53 0.53 0.53 0.52 0.52 0.51 0.51 0.50 0.49 0.48 0.46 0.44 0.43 0.42 0.41 0.42 0.42 0.43 0.44 0.45 0.45 0.45 0.45 0.45 0.45 0.45 0.45 0.44 0.44 0.43 0.43 0.42 0.42 0.40 0.37 0.36 0.37 0.35 0.33 0.33 0.33
0.46 0.48 0.48 0.48 0.47 0.47 0.46 0.47 0.49 0.49 0.49 0.49 0.50 0.50 0.49 0.49 0.49 0.49 0.50 0.51 0.52 0.52 0.52 0.52 0.52 0.52 0.51 0.50 0.50 0.49 0.47 0.46 0.45 0.43 0.42 0.41 0.40 0.39 0.39 0.40 0.41 0.42 0.43 0.43 0.44 0.44 0.44 0.44 0.44 0.44 0.43 0.43 0.42 0.41 0.41 0.39 0.36 0.37 0.36 0.34 0.33 0.32 0.32
0.46 0.47 0.48 0.48 0.48 0.48 0.48 0.48 0.49 0.49 0.49 0.48 0.48 0.49 0.48 0.48 0.47 0.47 0.48 0.49 0.49 0.50 0.50 0.50 0.50 0.50 0.49 0.48 0.47 0.47 0.46 0.45 0.44 0.42 0.41 0.40 0.39 0.37 0.37 0.38 0.39 0.40 0.40 0.40 0.40 0.41 0.41 0.41 0.42 0.42 0.41 0.40 0.40 0.39 0.39 0.38 0.37 0.36 0.35 0.33 0.32 0.31 0.30
0.46 0.46 0.47 0.48 0.48 0.48 0.48 0.48 0.48 0.49 0.49 0.48 0.47 0.47 0.47 0.47 0.46 0.46 0.46 0.46 0.46 0.46 0.47 0.48 0.47 0.48 0.47 0.46 0.46 0.46 0.45 0.44 0.43 0.42 0.41 0.39 0.38 0.37 0.36 0.38 0.38 0.39 0.39 0.39 0.39 0.39 0.39 0.39 0.39 0.39 0.38 0.38 0.38 0.37 0.37 0.37 0.36 0.35 0.34 0.32 0.30 0.30 0.29
0.45 0.45 0.46 0.47 0.47 0.47 0.47 0.48 0.47 0.48 0.49 0.48 0.48 0.47 0.46 0.45 0.45 0.45 0.45 0.45 0.45 0.45 0.45 0.46 0.46 0.46 0.46 0.46 0.45 0.45 0.44 0.44 0.42 0.41 0.40 0.39 0.38 0.38 0.39 0.39 0.38 0.38 0.38 0.38 0.37 0.37 0.37 0.37 0.37 0.36 0.36 0.36 0.35 0.35 0.35 0.35 0.34 0.33 0.32 0.30 0.29 0.28 0.27
0.43 0.43 0.44 0.44 0.44 0.44 0.45 0.47 0.47 0.46 0.47 0.47 0.47 0.47 0.46 0.45 0.44 0.45 0.44 0.44 0.44 0.44 0.44 0.45 0.45 0.45 0.45 0.45 0.44 0.44 0.43 0.43 0.42 0.41 0.40 0.39 0.39 0.39 0.39 0.38 0.38 0.37 0.37 0.36 0.36 0.35 0.34 0.34 0.34 0.34 0.34 0.33 0.33 0.33 0.33 0.32 0.31 0.30 0.30 0.29 0.28 0.28 0.26
0.40 0.41 0.41 0.42 0.42 0.42 0.43 0.44 0.45 0.45 0.45 0.45 0.45 0.45 0.45 0.45 0.44 0.45 0.44 0.43 0.42 0.43 0.43 0.44 0.44 0.44 0.44 0.43 0.43 0.43 0.42 0.41 0.40 0.39 0.39 0.39 0.39 0.38 0.38 0.38 0.36 0.36 0.35 0.35 0.34 0.34 0.33 0.33 0.32 0.32 0.32 0.32 0.31 0.31 0.31 0.30 0.30 0.29 0.29 0.28 0.28 0.28 0.28
0.38 0.38 0.38 0.38 0.38 0.39 0.40 0.41 0.43 0.43 0.43 0.43 0.43 0.42 0.42 0.43 0.43 0.43 0.43 0.43 0.42 0.42 0.42 0.42 0.42 0.42 0.42 0.42 0.42 0.41 0.41 0.40 0.39 0.38 0.38 0.38 0.38 0.37 0.37 0.36 0.35 0.35 0.34 0.33 0.32 0.32 0.32 0.31 0.31 0.31 0.30 0.30 0.30 0.30 0.29 0.29 0.29 0.29 0.28 0.28 0.28 0.28 0.27
0.35 0.35 0.35 0.35 0.35 0.35 0.37 0.38 0.39 0.40 0.40 0.40 0.40 0.40 0.40 0.40 0.41 0.41 0.41 0.41 0.42 0.42 0.41 0.41 0.41 0.41 0.41 0.41 0.40 0.40 0.39 0.39 0.38 0.38 0.37 0.37 0.37 0.36 0.36 0.35 0.34 0.33 0.33 0.32 0.31 0.31 0.30 0.30 0.30 0.30 0.29 0.29 0.29 0.29 0.29 0.28 0.28 0.28 0.28 0.27 0.27 0.26 0.26
0.33 0.33 0.33 0.33 0.33 0.34 0.35 0.36 0.36 0.37 0.37 0.37 0.37 0.37 0.38 0.38 0.38 0.39 0.39 0.40 0.40 0.40 0.40 0.40 0.40 0.39 0.39 0.39 0.39 0.38 0.37 0.37 0.37 0.37 0.36 0.36 0.35 0.35 0.34 0.34 0.33 0.32 0.31 0.30 0.30 0.30 0.29 0.29 0.29 0.29 0.29 0.29 0.29 0.28 0.27 0.27 0.27 0.26 0.25 0.25 0.24 0.23 0.23
0.31 0.31 0.31 0.31 0.32 0.32 0.33 0.33 0.34 0.34 0.34 0.35 0.35 0.35 0.36 0.36 0.36 0.37 0.37 0.37 0.38 0.38 0.38 0.38 0.38 0.38 0.38 0.37 0.37 0.37 0.36 0.36 0.36 0.35 0.35 0.34 0.34 0.33 0.33 0.33 0.32 0.31 0.30 0.29 0.29 0.29 0.29 0.29 0.29 0.29 0.28 0.28 0.27 0.27 0.27 0.26 0.25 0.24 0.24 0.23 0.23 0.22 0.21
0.29 0.29 0.29 0.29 0.29 0.30 0.30 0.30 0.30 0.31 0.31 0.32 0.32 0.32 0.33 0.33 0.34 0.35 0.35 0.35 0.35 0.36 0.36 0.36 0.36 0.36 0.36 0.35 0.35 0.34 0.34 0.34 0.34 0.33 0.33 0.33 0.32 0.32 0.31 0.31 0.31 0.30 0.30 0.29 0.29 0.29 0.28 0.28 0.28 0.27 0.27 0.26 0.26 0.26 0.25 0.25 0.24 0.23 0.23 0.23 0.22 0.21 0.21
0.28 0.28 0.28 0.28 0.28 0.27 0.27 0.27 0.28 0.29 0.30 0.30 0.30 0.30 0.30 0.30 0.31 0.32 0.32 0.33 0.33 0.33 0.33 0.33 0.32 0.32 0.32 0.32 0.32 0.31 0.31 0.31 0.31 0.31 0.31 0.31 0.31 0.30 0.30 0.29 0.29 0.28 0.28 0.28 0.28 0.27 0.27 0.26 0.26 0.26 0.26 0.25 0.25 0.24 0.24 0.24 0.24 0.23 0.23 0.23 0.22 0.22 0.21
0.27 0.27 0.27 0.26 0.27 0.27 0.25 0.25 0.26 0.28 0.28 0.28 0.28 0.28 0.28 0.29 0.29 0.29 0.30 0.30 0.31 0.30 0.29 0.29 0.29 0.29 0.29 0.29 0.29 0.29 0.29 0.29 0.29 0.29 0.29 0.29 0.29 0.29 0.28 0.28 0.28 0.27 0.27 0.27 0.27 0.26 0.25 0.25 0.25 0.24 0.24 0.24 0.23 0.23 0.23 0.24 0.23 0.23 0.23 0.22 0.22 0.22 0.22
0.25 0.25 0.25 0.24 0.23 0.24 0.25 0.25 0.25 0.25 0.25 0.25 0.25 0.25 0.26 0.26 0.27 0.27 0.28 0.28 0.28 0.27 0.27 0.26 0.26 0.26 0.27 0.27 0.27 0.27 0.28 0.28 0.27 0.27 0.27 0.27 0.27 0.27 0.27 0.27 0.26 0.26 0.26 0.26 0.26 0.25 0.25 0.24 0.23 0.23 0.23 0.23 0.23 0.23 0.23 0.23 0.23 0.23 0.22 0.22 0.22 0.21 0.21
0.23 0.23 0.22 0.22 0.22 0.22 0.21 0.22 0.22 0.22 0.22 0.22 0.22 0.22 0.22 0.23 0.23 0.24 0.24 0.25 0.25 0.24 0.24 0.24 0.24 0.24 0.24 0.25 0.25 0.25 0.26 0.26 0.26 0.26 0.26 0.26 0.26 0.25 0.26 0.25 0.25 0.26 0.25 0.25 0.24 0.24 0.23 0.23 0.23 0.23 0.22 0.22 0.22 0.22 0.22 0.22 0.22 0.22 0.21 0.21 0.21 0.21 0.21
0.22 0.21 0.21 0.20 0.20 0.20 0.19 0.19 0.19 0.19 0.19 0.19 0.20 0.20 0.20 0.20 0.20 0.21 0.21 0.21 0.21 0.20 0.20 0.21 0.21 0.21 0.22 0.22 0.22 0.23 0.24 0.24 0.24 0.25 0.25 0.25 0.24 0.24 0.24 0.24 0.24 0.25 0.24 0.24 0.23 0.23 0.22 0.22 0.22 0.22 0.22 0.22 0.22 0.21 0.21 0.21 0.21 0.21 0.21 0.21 0.20 0.20 0.20
0.20 0.19 0.18 0.17 0.17 0.17 0.17 0.17 0.17 0.17 0.17 0.17 0.17 0.17 0.17 0.17 0.17 0.18 0.18 0.18 0.17 0.17 0.17 0.17 0.18 0.18 0.19 0.19 0.20 0.20 0.21 0.21 0.22 0.22 0.22 0.23 0.23 0.23 0.23 0.23 0.23 0.23 0.22 0.22 0.22 0.22 0.22 0.22 0.21 0.21 0.21 0.21 0.21 0.21 0.21 0.20 0.20 0.20 0.20 0.19 0.19 0.19 0.19
0.15 0.15 0.15 0.15 0.14 0.14 0.15 0.15 0.15 0.15 0.16 0.16 0.16 0.16 0.16 0.16 0.15 0.14 0.15 0.16 0.16 0.16 0.16 0.16 0.16 0.16 0.17 0.17 0.17 0.18 0.18 0.19 0.19 0.19 0.20 0.20 0.20 0.21 0.21 0.21 0.21 0.21 0.21 0.21 0.21 0.21 0.21 0.21 0.20 0.20 0.20 0.20 0.20 0.20 0.19 0.19 0.19 0.19 0.19 0.19 0.19 0.18 0.18
0.13 0.13 0.14 0.14 0.14 0.14 0.14 0.14 0.14 0.14 0.15 0.15 0.15 0.15 0.15 0.14 0.13 0.13 0.14 0.14 0.15 0.15 0.15 0.16 0.16 0.16 0.16 0.17 0.17 0.17 0.17 0.17 0.18 0.18 0.18 0.19 0.19 0.19 0.19 0.19 0.19 0.20 0.20 0.20 0.20 0.20 0.20 0.20 0.20 0.20 0.19 0.19 0.19 0.19 0.19 0.19 0.19 0.18 0.18 0.18 0.18 0.18 0.18